Cosmos 1354 Rocket - Orbit

View from above orbital plane
View from above orbital plane
View from above satellite
View from above satellite

Ground track
Ground track

The orbit data is extracted from the following two-line orbital elements,

1 13149U 82037B   13145.20127851  .00000188  00000-0  75539-4 0  4139
2 13149 074.0435 092.2885 0014282 297.7784 192.6455 14.34689714624784
Epoch (UTC): 25 May 2013 04:49:50
Eccentricity: 0.0014282
inclination: 74.0435°
perigee height: 766 km
apogee height: 786 km
right ascension of ascending node: 92.2885°
argument of perigee: 297.7784°
revolutions per day: 14.34689714
mean anomaly at epoch: 192.6455°
orbit number at epoch: 62478

The dashed part of the orbit path shows where the satellite is in the earth's shadow,  

Developed and maintained by Chris Peat, Heavens-Above GmbH. Please read the updated FAQ before sending e-mail. Imprint. DLR